QPF
0.00 0.00 0.00 0.00 0.00 0.00 0.00 0.00 0.00 0.00 0.00 0.00 0.00 0.00 0.00 0.00 0.00 0.01 0.01 0.01 0.03 0.09 0.21 0.42 0.80 1.45 2.32 3.04 3.13 2.52 1.92 1.51 1.10 0.75 0.39 0.15 0.07 0.03 0.02 0.01 0.00 0.00 0.00 0.00
0.00 0.00 0.00 0.00 0.00 0.00 0.00 0.00 0.00 0.00 0.00 0.00 0.00 0.00 0.00 0.00 0.00 0.00 0.01 0.03 0.07 0.16 0.35 0.60 1.18 1.86 2.24 2.32 1.96 1.49 1.20 1.01 0.72 0.45 0.21 0.11 0.06 0.03 0.01 0.01 0.00 0.00 0.00 0.00
0.00 0.00 0.00 0.00 0.00 0.00 0.00 0.00 0.00 0.00 0.00 0.00 0.00 0.00 0.00 0.00 0.01 0.01 0.03 0.06 0.16 0.33 0.49 0.64 1.03 1.37 1.21 0.94 0.82 0.76 0.68 0.44 0.28 0.22 0.11 0.05 0.03 0.02 0.02 0.01 0.01 0.00 0.00 0.00
0.00 0.01 0.00 0.00 0.00 0.00 0.00 0.00 0.00 0.00 0.00 0.00 0.00 0.01 0.02 0.03 0.04 0.04 0.06 0.08 0.17 0.25 0.24 0.28 0.41 0.52 0.55 0.53 0.47 0.56 0.53 0.29 0.21 0.15 0.08 0.06 0.06 0.05 0.04 0.02 0.01 0.01 0.01 0.00
0.00 0.01 0.00 0.00 0.00 0.00 0.00 0.00 0.00 0.00 0.00 0.00 0.00 0.01 0.04 0.07 0.09 0.10 0.11 0.11 0.09 0.06 0.04 0.06 0.10 0.13 0.16 0.18 0.21 0.35 0.41 0.32 0.25 0.20 0.14 0.12 0.11 0.09 0.08 0.06 0.04 0.03 0.02 0.01
0.01 0.01 0.00 0.00 0.00 0.00 0.00 0.00 0.00 0.00 0.01 0.03 0.03 0.03 0.09 0.22 0.35 0.35 0.24 0.13 0.06 0.02 0.01 0.01 0.02 0.03 0.05 0.08 0.11 0.20 0.28 0.29 0.30 0.29 0.23 0.17 0.12 0.11 0.10 0.08 0.08 0.05 0.02 0.01
0.03 0.02 0.01 0.00 0.00 0.00 0.00 0.00 0.00 0.00 0.01 0.03 0.03 0.03 0.12 0.34 0.44 0.30 0.13 0.04 0.02 0.01 0.00 0.00 0.01 0.01 0.02 0.03 0.04 0.07 0.08 0.10 0.14 0.18 0.20 0.18 0.14 0.12 0.11 0.09 0.07 0.06 0.05 0.04
0.04 0.03 0.01 0.01 0.01 0.01 0.01 0.00 0.00 0.00 0.00 0.01 0.02 0.08 0.28 0.46 0.33 0.13 0.04 0.01 0.01 0.00 0.00 0.00 0.00 0.00 0.00 0.01 0.01 0.01 0.01 0.02 0.03 0.04 0.05 0.07 0.08 0.08 0.08 0.08 0.08 0.11 0.15 0.16
0.00 0.00 0.01 0.01 0.02 0.02 0.01 0.00 0.00 0.00 0.00 0.01 0.04 0.13 0.21 0.25 0.18 0.08 0.03 0.01 0.00 0.00 0.00 0.00 0.00 0.00 0.00 0.00 0.00 0.00 0.00 0.00 0.00 0.01 0.01 0.01 0.02 0.02 0.03 0.04 0.05 0.08 0.14 0.19
0.00 0.00 0.00 0.01 0.01 0.02 0.01 0.01 0.01 0.01 0.01 0.01 0.03 0.14 0.18 0.14 0.11 0.07 0.04 0.02 0.00 0.00 0.00 0.00 0.00 0.00 0.00 0.00 0.00 0.00 0.00 0.00 0.00 0.00 0.00 0.00 0.00 0.00 0.01 0.01 0.02 0.04 0.06 0.09
0.00 0.00 0.00 0.00 0.01 0.02 0.02 0.01 0.01 0.01 0.01 0.02 0.03 0.09 0.11 0.10 0.08 0.06 0.04 0.01 0.00 0.00 0.00 0.00 0.00 0.00 0.00 0.00 0.00 0.00 0.00 0.00 0.00 0.00 0.00 0.00 0.00 0.00 0.00 0.00 0.00 0.01 0.01 0.03
0.00 0.00 0.00 0.00 0.01 0.02 0.02 0.02 0.02 0.02 0.02 0.02 0.04 0.07 0.05 0.05 0.04 0.03 0.01 0.00 0.00 0.00 0.00 0.00 0.00 0.00 0.00 0.00 0.00 0.00 0.00 0.00 0.00 0.00 0.00 0.00 0.00 0.00 0.00 0.00 0.00 0.00 0.00 0.00
0.00 0.00 0.00 0.00 0.01 0.02 0.02 0.02 0.02 0.03 0.04 0.03 0.04 0.04 0.02 0.01 0.01 0.00 0.00 0.00 0.00 0.00 0.00 0.00 0.00 0.00 0.00 0.00 0.00 0.00 0.00 0.00 0.00 0.00 0.00 0.00 0.00 0.00 0.00 0.00 0.00 0.00 0.00 0.00
0.00 0.00 0.00 0.00 0.00 0.01 0.02 0.03 0.05 0.04 0.02 0.01 0.01 0.02 0.01 0.00 0.00 0.00 0.00 0.00 0.00 0.00 0.00 0.00 0.00 0.00 0.00 0.00 0.00 0.00 0.00 0.00 0.00 0.00 0.00 0.00 0.00 0.00 0.00 0.00 0.00 0.00 0.00 0.00
0.00 0.00 0.00 0.00 0.00 0.01 0.02 0.05 0.04 0.02 0.00 0.00 0.00 0.00 0.00 0.00 0.00 0.00 0.00 0.00 0.00 0.00 0.00 0.00 0.00 0.00 0.00 0.00 0.00 0.00 0.00 0.00 0.00 0.00 0.00 0.00 0.00 0.00 0.00 0.00 0.00 0.00 0.00 0.00
0.00 0.00 0.00 0.00 0.00 0.00 0.02 0.05 0.03 0.00 0.00 0.00 0.00 0.00 0.00 0.00 0.00 0.00 0.00 0.00 0.00 0.00 0.00 0.00 0.00 0.00 0.00 0.00 0.00 0.00 0.00 0.00 0.00 0.00 0.00 0.00 0.00 0.00 0.00 0.00 0.00 0.01 0.00 0.00
0.00 0.00 0.00 0.00 0.00 0.00 0.02 0.02 0.01 0.00 0.00 0.00 0.00 0.00 0.00 0.00 0.00 0.00 0.00 0.00 0.00 0.00 0.00 0.00 0.00 0.00 0.00 0.00 0.00 0.00 0.00 0.00 0.00 0.00 0.00 0.00 0.00 0.00 0.00 0.00 0.01 0.01 0.01 0.01
0.00 0.00 0.00 0.00 0.00 0.01 0.01 0.00 0.00 0.00 0.00 0.00 0.00 0.00 0.00 0.00 0.00 0.00 0.00 0.00 0.00 0.00 0.00 0.00 0.00 0.00 0.00 0.00 0.00 0.00 0.00 0.00 0.00 0.00 0.00 0.00 0.00 0.00 0.00 0.00 0.00 0.01 0.01 0.01
0.00 0.00 0.00 0.00 0.00 0.01 0.01 0.00 0.00 0.00 0.00 0.00 0.00 0.00 0.00 0.00 0.00 0.00 0.00 0.00 0.00 0.00 0.00 0.00 0.00 0.00 0.00 0.00 0.00 0.00 0.00 0.00 0.00 0.00 0.01 0.01 0.01 0.01 0.00 0.00 0.01 0.01 0.01 0.01
0.00 0.00 0.00 0.00 0.00 0.00 0.00 0.00 0.00 0.00 0.00 0.00 0.00 0.00 0.00 0.00 0.00 0.00 0.00 0.00 0.00 0.00 0.00 0.00 0.00 0.00 0.00 0.00 0.00 0.00 0.01 0.01 0.02 0.02 0.03 0.02 0.02 0.02 0.01 0.01 0.01 0.01 0.01 0.01
0.00 0.00 0.00 0.00 0.00 0.00 0.00 0.00 0.00 0.00 0.00 0.00 0.00 0.00 0.00 0.00 0.00 0.00 0.00 0.00 0.00 0.00 0.00 0.00 0.00 0.00 0.00 0.00 0.01 0.02 0.03 0.04 0.04 0.05 0.05 0.04 0.04 0.03 0.02 0.01 0.01 0.01 0.01 0.00
0.00 0.00 0.00 0.00 0.00 0.00 0.00 0.00 0.00 0.00 0.00 0.00 0.00 0.00 0.00 0.00 0.00 0.00 0.00 0.00 0.00 0.00 0.00 0.00 0.00 0.00 0.00 0.01 0.03 0.05 0.05 0.05 0.06 0.06 0.05 0.04 0.03 0.03 0.02 0.02 0.01 0.01 0.01 0.01
0.00 0.00 0.00 0.00 0.00 0.00 0.00 0.00 0.00 0.00 0.00 0.00 0.00 0.00 0.00 0.00 0.00 0.00 0.00 0.00 0.00 0.00 0.00 0.00 0.00 0.01 0.01 0.02 0.04 0.07 0.06 0.06 0.07 0.07 0.06 0.04 0.04 0.03 0.03 0.03 0.02 0.01 0.01 0.01
0.00 0.00 0.00 0.00 0.00 0.00 0.00 0.00 0.00 0.00 0.00 0.00 0.00 0.00 0.00 0.00 0.00 0.00 0.00 0.00 0.00 0.00 0.00 0.00 0.01 0.02 0.03 0.03 0.03 0.05 0.06 0.07 0.08 0.08 0.06 0.05 0.05 0.05 0.05 0.04 0.04 0.02 0.01 0.01
0.00 0.00 0.00 0.00 0.00 0.00 0.00 0.00 0.00 0.00 0.00 0.00 0.00 0.00 0.00 0.00 0.00 0.00 0.00 0.00 0.00 0.00 0.01 0.02 0.03 0.04 0.04 0.04 0.03 0.04 0.05 0.07 0.08 0.08 0.07 0.07 0.08 0.07 0.06 0.06 0.05 0.03 0.02 0.02
0.00 0.00 0.00 0.00 0.00 0.00 0.00 0.00 0.00 0.00 0.00 0.00 0.00 0.00 0.00 0.00 0.00 0.00 0.00 0.00 0.00 0.01 0.02 0.03 0.04 0.04 0.04 0.04 0.03 0.03 0.04 0.06 0.08 0.08 0.07 0.07 0.07 0.07 0.07 0.06 0.04 0.03 0.01 0.01
MSLP
1010.97 1011.65 1012.02 1012.09 1011.91 1011.55 1011.13 1010.75 1010.50 1010.40 1010.47 1010.66 1010.92 1011.20 1011.46 1011.65 1011.77 1011.84 1011.87 1011.87 1011.86 1011.83 1011.77 1011.64 1011.44 1011.15 1010.79 1010.37 1009.95 1009.55 1009.22 1008.99 1008.86 1008.82 1008.85 1008.91 1008.96 1008.99 1008.96 1008.91 1008.84 1008.78 1008.78 1008.84
1011.55 1012.02 1012.17 1012.03 1011.69 1011.27 1010.88 1010.64 1010.61 1010.79 1011.16 1011.63 1012.13 1012.58 1012.91 1013.11 1013.17 1013.12 1013.00 1012.84 1012.67 1012.49 1012.29 1012.05 1011.75 1011.38 1010.97 1010.52 1010.09 1009.71 1009.43 1009.26 1009.20 1009.23 1009.31 1009.38 1009.42 1009.39 1009.29 1009.13 1008.95 1008.80 1008.72 1008.73
1011.95 1012.21 1012.14 1011.83 1011.39 1010.96 1010.66 1010.60 1010.82 1011.29 1011.94 1012.66 1013.34 1013.89 1014.25 1014.39 1014.33 1014.13 1013.84 1013.52 1013.20 1012.90 1012.61 1012.31 1011.98 1011.61 1011.21 1010.79 1010.39 1010.06 1009.84 1009.73 1009.74 1009.81 1009.92 1010.00 1010.01 1009.92 1009.72 1009.46 1009.17 1008.92 1008.75 1008.70
1012.20 1012.24 1011.99 1011.56 1011.07 1010.69 1010.53 1010.69 1011.17 1011.91 1012.80 1013.72 1014.52 1015.12 1015.44 1015.47 1015.26 1014.89 1014.42 1013.95 1013.51 1013.13 1012.81 1012.51 1012.21 1011.88 1011.54 1011.18 1010.85 1010.59 1010.42 1010.37 1010.41 1010.51 1010.62 1010.68 1010.65 1010.50 1010.22 1009.87 1009.48 1009.12 1008.86 1008.73
1012.35 1012.18 1011.78 1011.27 1010.80 1010.52 1010.54 1010.92 1011.64 1012.62 1013.71 1014.77 1015.64 1016.21 1016.45 1016.34 1015.96 1015.41 1014.79 1014.19 1013.67 1013.25 1012.93 1012.68 1012.45 1012.21 1011.95 1011.68 1011.42 1011.21 1011.09 1011.06 1011.12 1011.22 1011.32 1011.35 1011.28 1011.08 1010.74 1010.31 1009.84 1009.40 1009.05 1008.84
1012.46 1012.11 1011.60 1011.06 1010.64 1010.49 1010.69 1011.28 1012.22 1013.38 1014.61 1015.74 1016.62 1017.13 1017.25 1017.00 1016.46 1015.75 1015.00 1014.30 1013.73 1013.32 1013.04 1012.85 1012.71 1012.57 1012.40 1012.20 1012.01 1011.84 1011.74 1011.71 1011.76 1011.84 1011.92 1011.93 1011.83 1011.59 1011.22 1010.75 1010.22 1009.72 1009.30 1009.00
1012.58 1012.09 1011.51 1010.98 1010.63 1010.61 1010.97 1011.74 1012.84 1014.12 1015.42 1016.56 1017.40 1017.83 1017.83 1017.44 1016.76 1015.94 1015.10 1014.35 1013.77 1013.37 1013.15 1013.04 1012.97 1012.91 1012.81 1012.68 1012.52 1012.36 1012.26 1012.21 1012.23 1012.29 1012.34 1012.34 1012.23 1011.99 1011.61 1011.13 1010.59 1010.06 1009.58 1009.22
1012.73 1012.16 1011.56 1011.05 1010.79 1010.88 1011.37 1012.25 1013.44 1014.77 1016.07 1017.17 1017.93 1018.27 1018.17 1017.67 1016.91 1016.02 1015.14 1014.39 1013.82 1013.45 1013.27 1013.22 1013.21 1013.20 1013.14 1013.02 1012.87 1012.71 1012.57 1012.49 1012.48 1012.50 1012.53 1012.52 1012.43 1012.21 1011.87 1011.42 1010.91 1010.37 1009.88 1009.46
1012.93 1012.33 1011.74 1011.30 1011.12 1011.29 1011.85 1012.78 1013.98 1015.28 1016.52 1017.54 1018.21 1018.46 1018.28 1017.73 1016.94 1016.04 1015.17 1014.44 1013.90 1013.57 1013.42 1013.38 1013.39 1013.39 1013.32 1013.19 1013.01 1012.81 1012.63 1012.50 1012.45 1012.44 1012.46 1012.46 1012.39 1012.23 1011.95 1011.57 1011.11 1010.62 1010.13 1009.70
1013.13 1012.57 1012.06 1011.69 1011.59 1011.82 1012.41 1013.32 1014.45 1015.66 1016.79 1017.70 1018.27 1018.44 1018.22 1017.67 1016.90 1016.05 1015.23 1014.54 1014.03 1013.72 1013.57 1013.52 1013.50 1013.45 1013.34 1013.16 1012.92 1012.66 1012.42 1012.24 1012.14 1012.11 1012.12 1012.14 1012.11 1012.02 1011.82 1011.53 1011.16 1010.73 1010.29 1009.87
1013.31 1012.87 1012.47 1012.22 1012.19 1012.46 1013.02 1013.86 1014.88 1015.94 1016.93 1017.70 1018.17 1018.29 1018.07 1017.55 1016.84 1016.07 1015.32 1014.69 1014.21 1013.89 1013.71 1013.60 1013.51 1013.38 1013.18 1012.92 1012.60 1012.27 1011.97 1011.74 1011.59 1011.52 1011.52 1011.56 1011.58 1011.55 1011.45 1011.26 1010.99 1010.67 1010.30 1009.92
1013.46 1013.19 1012.96 1012.84 1012.89 1013.18 1013.70 1014.43 1015.30 1016.19 1017.01 1017.64 1018.02 1018.09 1017.88 1017.42 1016.81 1016.12 1015.46 1014.87 1014.41 1014.06 1013.81 1013.61 1013.41 1013.17 1012.87 1012.50 1012.10 1011.70 1011.33 1011.04 1010.84 1010.74 1010.72 1010.76 1010.81 1010.84 1010.82 1010.74 1010.59 1010.37 1010.11 1009.81
1013.59 1013.54 1013.50 1013.52 1013.67 1013.97 1014.43 1015.04 1015.75 1016.46 1017.10 1017.59 1017.87 1017.92 1017.73 1017.33 1016.81 1016.21 1015.62 1015.07 1014.59 1014.19 1013.85 1013.53 1013.20 1012.84 1012.42 1011.95 1011.47 1010.99 1010.56 1010.22 1009.97 1009.82 1009.77 1009.79 1009.85 1009.92 1009.97 1009.98 1009.93 1009.84 1009.69 1009.49
1013.75 1013.92 1014.07 1014.25 1014.48 1014.80 1015.21 1015.70 1016.24 1016.77 1017.25 1017.60 1017.79 1017.79 1017.62 1017.28 1016.83 1016.30 1015.75 1015.21 1014.71 1014.24 1013.79 1013.35 1012.88 1012.39 1011.87 1011.31 1010.75 1010.22 1009.73 1009.33 1009.03 1008.83 1008.73 1008.71 1008.75 1008.83 1008.92 1009.00 1009.06 1009.07 1009.04 1008.95
1013.98 1014.35 1014.68 1015.00 1015.32 1015.65 1016.01 1016.39 1016.78 1017.14 1017.45 1017.66 1017.76 1017.72 1017.55 1017.24 1016.83 1016.35 1015.82 1015.27 1014.71 1014.16 1013.60 1013.04 1012.46 1011.86 1011.25 1010.62 1010.01 1009.43 1008.90 1008.45 1008.09 1007.83 1007.67 1007.59 1007.60 1007.66 1007.76 1007.89 1008.02 1008.13 1008.20 1008.22
1014.34 1014.85 1015.32 1015.75 1016.12 1016.46 1016.77 1017.05 1017.30 1017.52 1017.68 1017.77 1017.77 1017.67 1017.47 1017.17 1016.78 1016.30 1015.77 1015.19 1014.58 1013.94 1013.29 1012.63 1011.95 1011.27 1010.59 1009.93 1009.28 1008.68 1008.12 1007.63 1007.22 1006.90 1006.66 1006.51 1006.45 1006.48 1006.57 1006.71 1006.88 1007.06 1007.22 1007.33
1014.83 1015.43 1015.98 1016.46 1016.87 1017.19 1017.45 1017.64 1017.77 1017.85 1017.88 1017.85 1017.76 1017.60 1017.36 1017.03 1016.63 1016.15 1015.59 1014.97 1014.30 1013.60 1012.87 1012.14 1011.40 1010.67 1009.96 1009.27 1008.62 1008.00 1007.43 1006.91 1006.45 1006.07 1005.76 1005.53 1005.40 1005.36 1005.42 1005.55 1005.73 1005.95 1006.17 1006.35
1015.45 1016.06 1016.62 1017.11 1017.50 1017.79 1017.98 1018.08 1018.11 1018.08 1017.99 1017.86 1017.68 1017.45 1017.16 1016.80 1016.37 1015.86 1015.28 1014.63 1013.92 1013.17 1012.40 1011.62 1010.85 1010.10 1009.38 1008.70 1008.05 1007.43 1006.86 1006.32 1005.82 1005.37 1004.99 1004.69 1004.48 1004.38 1004.38 1004.48 1004.65 1004.87 1005.11 1005.33
1016.13 1016.68 1017.20 1017.63 1017.97 1018.20 1018.32 1018.34 1018.28 1018.15 1017.97 1017.75 1017.50 1017.21 1016.87 1016.48 1016.02 1015.49 1014.89 1014.22 1013.49 1012.72 1011.93 1011.13 1010.36 1009.61 1008.90 1008.23 1007.59 1006.98 1006.40 1005.84 1005.31 1004.81 1004.37 1004.00 1003.72 1003.54 1003.48 1003.53 1003.67 1003.88 1004.11 1004.33
1016.77 1017.23 1017.65 1018.00 1018.25 1018.41 1018.45 1018.40 1018.26 1018.06 1017.81 1017.53 1017.22 1016.88 1016.51 1016.09 1015.62 1015.08 1014.47 1013.80 1013.07 1012.30 1011.52 1010.73 1009.96 1009.23 1008.53 1007.87 1007.24 1006.63 1006.04 1005.45 1004.89 1004.35 1003.86 1003.43 1003.08 1002.85 1002.73 1002.72 1002.81 1002.98 1003.18 1003.39
1017.27 1017.61 1017.92 1018.16 1018.33 1018.40 1018.37 1018.26 1018.07 1017.81 1017.52 1017.20 1016.85 1016.49 1016.10 1015.67 1015.20 1014.67 1014.08 1013.42 1012.71 1011.97 1011.20 1010.43 1009.68 1008.96 1008.26 1007.60 1006.96 1006.34 1005.73 1005.13 1004.53 1003.95 1003.42 1002.94 1002.55 1002.25 1002.08 1002.02 1002.06 1002.18 1002.34 1002.52
1017.55 1017.78 1017.97 1018.11 1018.19 1018.19 1018.10 1017.95 1017.72 1017.44 1017.13 1016.79 1016.44 1016.07 1015.68 1015.26 1014.81 1014.30 1013.74 1013.11 1012.44 1011.73 1010.99 1010.24 1009.50 1008.78 1008.07 1007.39 1006.73 1006.08 1005.44 1004.80 1004.17 1003.57 1003.00 1002.49 1002.05 1001.72 1001.50 1001.39 1001.38 1001.45 1001.58 1001.72
1017.57 1017.70 1017.80 1017.85 1017.86 1017.80 1017.68 1017.51 1017.27 1017.00 1016.69 1016.36 1016.02 1015.66 1015.29 1014.89 1014.46 1013.99 1013.46 1012.88 1012.25 1011.57 1010.86 1010.13 1009.38 1008.65 1007.92 1007.20 1006.50 1005.81 1005.12 1004.45 1003.79 1003.15 1002.56 1002.03 1001.58 1001.22 1000.96 1000.81 1000.76 1000.79 1000.87 1000.99
1017.31 1017.37 1017.41 1017.41 1017.37 1017.29 1017.16 1016.99 1016.78 1016.52 1016.24 1015.94 1015.63 1015.29 1014.95 1014.58 1014.18 1013.73 1013.25 1012.70 1012.10 1011.45 1010.76 1010.03 1009.28 1008.52 1007.75 1006.99 1006.23 1005.49 1004.76 1004.04 1003.36 1002.71 1002.10 1001.56 1001.10 1000.73 1000.45 1000.27 1000.18 1000.18 1000.23 1000.33
1016.83 1016.85 1016.84 1016.82 1016.77 1016.70 1016.60 1016.46 1016.28 1016.07 1015.83 1015.57 1015.28 1014.98 1014.66 1014.31 1013.94 1013.52 1013.06 1012.54 1011.97 1011.33 1010.65 1009.91 1009.14 1008.35 1007.54 1006.72 1005.91 1005.12 1004.35 1003.60 1002.90 1002.24 1001.64 1001.10 1000.65 1000.27 999.99 999.79 999.67 999.64 999.67 999.75
1016.19 1016.19 1016.17 1016.15 1016.13 1016.09 1016.03 1015.94 1015.82 1015.67 1015.48 1015.26 1015.01 1014.73 1014.43 1014.10 1013.73 1013.33 1012.88 1012.37 1011.80 1011.17 1010.48 1009.73 1008.94 1008.11 1007.26 1006.40 1005.54 1004.71 1003.91 1003.15 1002.44 1001.79 1001.21 1000.69 1000.25 999.89 999.61 999.40 999.26 999.20 999.21 999.28
Thickness
5787 5768 5758 5769 5775 5775 5776 5774 5772 5787 5807 5792 5772 5761 5761 5770 5771 5766 5762 5758 5755 5752 5754 5756 5756 5755 5756 5755 5751 5746 5740 5735 5727 5724 5724 5729 5733 5738 5740 5742 5741 5739 5737 5735
5764 5759 5778 5790 5791 5786 5779 5771 5771 5783 5800 5787 5762 5750 5750 5756 5754 5752 5748 5744 5741 5741 5744 5748 5749 5750 5747 5745 5739 5735 5730 5727 5725 5723 5725 5727 5730 5733 5736 5737 5735 5734 5732 5731
5757 5769 5788 5786 5781 5776 5774 5771 5771 5773 5782 5780 5767 5740 5737 5741 5746 5746 5742 5736 5732 5732 5734 5738 5740 5738 5737 5734 5729 5726 5721 5718 5720 5722 5723 5724 5724 5724 5724 5725 5726 5727 5728 5727
5761 5776 5779 5776 5775 5777 5763 5782 5782 5777 5761 5745 5754 5720 5719 5724 5727 5728 5728 5725 5722 5721 5724 5727 5730 5728 5726 5722 5718 5715 5711 5710 5710 5711 5713 5714 5712 5709 5712 5715 5719 5720 5721 5722
5756 5769 5769 5768 5778 5782 5776 5786 5778 5769 5754 5739 5737 5717 5707 5716 5710 5710 5713 5714 5714 5712 5714 5716 5717 5716 5714 5710 5706 5703 5701 5701 5700 5700 5700 5700 5700 5701 5703 5705 5709 5711 5713 5715
5768 5781 5780 5780 5789 5791 5788 5774 5760 5744 5731 5716 5721 5710 5697 5701 5701 5703 5706 5707 5706 5704 5705 5706 5706 5704 5701 5698 5694 5692 5690 5689 5688 5688 5688 5687 5687 5688 5690 5692 5695 5699 5703 5707
5754 5772 5785 5789 5777 5782 5775 5740 5713 5710 5698 5700 5713 5703 5694 5702 5706 5706 5704 5702 5701 5700 5697 5696 5694 5691 5687 5685 5682 5680 5678 5677 5676 5676 5676 5675 5675 5675 5676 5677 5680 5684 5688 5693
5733 5740 5770 5781 5773 5763 5764 5742 5709 5696 5693 5694 5704 5694 5693 5702 5704 5705 5703 5699 5696 5692 5688 5686 5683 5680 5678 5675 5672 5669 5667 5664 5663 5662 5661 5661 5661 5661 5662 5664 5666 5670 5673 5678
5730 5734 5770 5781 5783 5774 5757 5744 5740 5714 5709 5691 5689 5689 5690 5696 5696 5695 5692 5688 5683 5680 5677 5673 5670 5666 5663 5661 5659 5657 5655 5652 5650 5649 5647 5646 5645 5645 5646 5649 5651 5654 5658 5663
5747 5736 5759 5775 5778 5771 5762 5750 5728 5708 5693 5682 5684 5682 5680 5684 5685 5685 5681 5677 5674 5672 5669 5665 5661 5657 5653 5649 5644 5640 5638 5636 5635 5634 5632 5631 5629 5628 5629 5630 5633 5637 5641 5645
5758 5738 5743 5754 5751 5747 5749 5742 5726 5707 5697 5680 5671 5676 5693 5687 5683 5678 5674 5671 5668 5665 5662 5658 5654 5650 5643 5636 5628 5621 5617 5614 5612 5612 5612 5610 5609 5610 5610 5610 5613 5616 5621 5626
5757 5732 5722 5737 5753 5758 5746 5735 5722 5699 5691 5683 5668 5669 5693 5683 5677 5671 5666 5663 5659 5655 5651 5646 5641 5635 5628 5620 5612 5605 5598 5593 5590 5589 5588 5587 5586 5586 5587 5589 5592 5596 5600 5605
5755 5727 5706 5711 5723 5736 5730 5728 5719 5702 5685 5674 5660 5662 5681 5674 5668 5662 5655 5649 5645 5641 5636 5629 5623 5617 5612 5606 5600 5593 5587 5581 5576 5572 5568 5566 5564 5563 5564 5566 5570 5574 5579 5584
5757 5722 5708 5696 5704 5718 5712 5714 5712 5697 5673 5667 5665 5659 5660 5658 5654 5649 5644 5639 5635 5630 5623 5617 5611 5606 5601 5596 5590 5585 5580 5575 5570 5564 5559 5555 5553 5551 5550 5550 5552 5554 5558 5562
5746 5720 5721 5720 5724 5719 5710 5708 5703 5690 5682 5667 5664 5655 5649 5648 5644 5640 5635 5631 5627 5622 5616 5610 5604 5598 5593 5589 5585 5580 5576 5571 5566 5561 5555 5552 5550 5548 5545 5543 5543 5543 5544 5547
5736 5721 5715 5710 5716 5713 5702 5699 5694 5688 5679 5670 5660 5649 5650 5646 5641 5635 5629 5625 5619 5612 5607 5602 5597 5592 5588 5584 5580 5576 5571 5567 5562 5556 5552 5549 5546 5543 5541 5540 5539 5537 5537 5538
5731 5719 5707 5698 5709 5706 5680 5685 5681 5674 5666 5657 5642 5639 5640 5634 5631 5624 5618 5612 5604 5601 5598 5594 5589 5585 5581 5577 5572 5567 5563 5558 5553 5549 5546 5543 5540 5538 5536 5536 5534 5532 5532 5533
5729 5714 5696 5691 5691 5676 5681 5693 5684 5669 5656 5653 5645 5638 5633 5626 5624 5619 5611 5603 5599 5595 5591 5586 5581 5576 5571 5565 5558 5552 5547 5542 5538 5535 5534 5532 5530 5529 5528 5527 5526 5525 5525 5526
5732 5714 5692 5678 5676 5676 5682 5683 5677 5664 5650 5646 5639 5634 5631 5626 5619 5612 5606 5598 5590 5586 5581 5576 5569 5562 5555 5546 5538 5530 5524 5519 5516 5515 5515 5515 5516 5516 5516 5516 5517 5517 5517 5519
5721 5710 5689 5678 5672 5663 5668 5679 5681 5667 5645 5643 5636 5628 5623 5614 5601 5600 5600 5592 5586 5580 5572 5565 5558 5549 5540 5530 5520 5511 5503 5497 5493 5492 5493 5495 5498 5501 5503 5505 5507 5508 5510 5512
5703 5691 5679 5671 5665 5664 5672 5676 5666 5637 5630 5636 5630 5620 5612 5601 5594 5596 5594 5587 5579 5572 5565 5557 5548 5538 5528 5518 5507 5496 5488 5481 5477 5475 5475 5477 5480 5484 5488 5492 5496 5498 5501 5504
5693 5680 5672 5663 5653 5653 5671 5664 5647 5636 5636 5630 5625 5618 5610 5603 5597 5592 5585 5578 5572 5566 5559 5551 5541 5531 5520 5509 5497 5488 5480 5474 5469 5466 5465 5465 5466 5470 5477 5480 5484 5488 5491 5495
5696 5687 5675 5668 5662 5667 5668 5659 5652 5642 5634 5630 5622 5617 5610 5602 5595 5587 5579 5572 5566 5560 5553 5545 5535 5526 5516 5504 5492 5483 5477 5471 5465 5461 5458 5457 5458 5460 5465 5469 5474 5479 5483 5487
5702 5698 5683 5673 5669 5667 5661 5658 5652 5646 5639 5632 5625 5617 5608 5598 5590 5581 5573 5566 5561 5556 5549 5541 5532 5523 5514 5503 5491 5482 5475 5469 5463 5458 5456 5454 5454 5455 5458 5462 5468 5473 5478 5482
5700 5694 5680 5672 5671 5667 5661 5657 5652 5646 5639 5631 5623 5614 5604 5594 5584 5576 5567 5562 5558 5553 5546 5537 5528 5519 5511 5501 5492 5484 5476 5468 5462 5458 5455 5453 5452 5453 5456 5459 5464 5469 5474 5479
5695 5685 5673 5664 5666 5659 5655 5656 5651 5643 5634 5626 5617 5609 5600 5590 5580 5572 5564 5559 5555 5551 5544 5536 5528 5519 5510 5501 5493 5486 5479 5471 5464 5460 5455 5452 5451 5452 5454 5457 5462 5466 5470 5476